Hauptseite
METAR-TAF:

METAR-TAF

Flughäfen :

Flughafen Le Luc-Le Cannet

Le Luc, Frankreich

Breite: 43-23N, Länge: 006-23E, Höhe: 80 m

Beobachtung

Neuester Wetterbericht von vor 7 Stunden und 37 Minuten, um 13:30 UTC
Windstille
Temperatur 10°C
Luftfeuchtigkeit 76%
Luftdruck 1018 hPa
Sichtweite 10 km oder mehr

METAR: LFMC 161330Z AUTO 00000KT 9999 ////// 10/06 Q1018

Zeit: 22:07 (21:07 UTC)


TAF: fehlend

Wetterbeobachtungen und Prognosen von mehr als 4000 Flughäfen (METAR und TAF Bericht).

Die verfügbaren Stationen werden durch gelbe und rote Markierungen auf der Karte dargestellt.

Führen Sie die Maus auf sie, um den Namen der Station zu sehen.

Darauf klicken, um die Beobachtung von Wetterbeobachtungen und Prognosen zu sehen.

Um die Karte zu ändern : klicken Sie auf den grünen Tasten mit einem schwarzen Kreuz Zum Vergrößern, auf den grünen Button mit einem Gedankenstrich zu verkleinern, oder auf die grünen Pfeile für benachbarte Karten.


METAR-TAF: